Wind_Speed
26 24 26 29 29 29 29 27 23 19 16 15 13 13 14 18 20 18 16 16 16 16 22 23 21 15 8 5 3 4 2 4 6 6 12 14 14 15 15 15 17 17 15 12 11 13 13 13 12 12 12 14 15 15 16 17 18 17 19 22 23 22 18 11 11 12 15 18 19 20 22 26 26 23 21 20 18 17 16 16 16 16 18 19 19 19
23 24 25 25 24 25 27 26 24 22 19 16 15 14 15 19 22 19 16 14 11 17 21 20 16 11 9 6 4 8 7 8 10 9 11 13 16 18 18 17 18 17 15 13 12 13 13 14 13 12 12 14 14 15 16 17 19 19 20 23 23 22 18 13 11 10 14 19 19 19 22 26 27 24 22 20 18 16 15 16 17 18 19 20 20 20
18 25 24 20 18 21 23 24 24 24 21 18 16 14 15 17 19 16 9 2 8 16 17 18 14 11 12 7 6 10 9 10 13 13 14 15 17 19 19 19 19 19 17 15 13 13 13 14 14 12 12 13 13 14 15 17 19 19 21 23 23 21 18 13 10 10 14 18 18 20 22 23 23 23 22 20 18 16 16 17 18 19 20 20 20 20
17 21 19 16 16 19 22 23 24 23 22 19 17 17 17 16 15 13 6 6 7 3 5 14 15 12 11 7 5 7 10 11 14 15 15 15 16 15 16 18 19 20 19 18 15 13 12 13 14 12 10 11 12 12 13 15 18 20 22 23 21 19 17 13 9 10 14 17 16 18 20 19 20 23 23 20 17 16 17 17 18 20 20 20 21 21
16 10 12 13 14 19 21 22 23 21 21 18 17 18 19 15 11 12 10 5 4 6 2 9 13 12 11 8 4 5 7 11 15 16 16 18 17 14 13 16 17 19 21 21 18 13 10 11 11 10 8 9 10 11 12 14 17 20 22 22 21 17 14 12 11 11 14 15 12 14 18 21 24 24 22 19 16 16 17 17 18 18 20 21 22 22
16 11 10 12 14 18 20 22 22 19 18 18 16 16 18 18 13 12 12 10 9 4 2 6 6 7 8 5 6 5 5 10 12 13 16 19 19 15 14 15 15 18 21 22 18 15 12 10 9 9 9 9 9 9 11 14 17 20 21 21 19 14 10 11 11 12 14 12 9 11 15 19 22 21 20 18 16 15 15 16 17 18 20 22 23 23
17 12 9 11 12 16 20 21 21 18 18 18 15 15 17 18 15 12 10 9 8 4 3 5 4 3 2 5 9 8 7 9 12 12 13 17 18 18 17 16 15 15 18 22 19 16 15 12 11 10 10 10 8 8 9 13 16 17 18 18 15 10 7 9 10 11 11 10 9 10 12 14 16 16 17 17 17 17 16 17 19 19 20 22 23 24
19 14 12 12 13 16 20 19 17 16 17 17 14 13 14 16 13 9 9 11 10 6 4 5 5 3 1 4 8 9 7 6 8 7 9 14 17 16 13 11 13 12 14 19 19 16 15 13 12 11 10 10 10 11 12 13 14 15 16 16 13 9 8 8 7 7 8 8 7 9 11 13 14 14 16 17 18 20 19 19 20 21 21 22 23 23
16 14 13 13 16 20 20 18 14 13 17 17 15 13 14 15 13 9 11 12 10 8 4 3 2 2 1 5 7 4 2 2 1 0 3 8 9 8 4 2 8 11 15 20 20 16 13 12 12 12 12 14 15 16 16 16 16 15 15 16 17 14 10 8 6 4 4 5 6 8 9 10 11 12 15 18 19 20 20 20 21 21 22 23 23 22
14 14 13 12 18 21 19 18 16 15 16 16 14 13 11 10 11 11 13 12 9 6 3 1 2 1 3 9 8 4 4 4 4 4 4 4 5 4 2 2 4 7 12 18 20 17 14 13 13 13 15 18 21 22 22 21 20 16 14 16 19 19 13 10 7 4 4 5 5 7 8 11 12 11 15 17 17 19 20 21 22 22 22 23 23 22
18 17 15 14 16 16 15 17 18 14 13 13 11 11 9 9 10 9 10 10 7 3 3 4 3 2 4 10 10 6 4 3 2 3 3 3 3 4 4 3 4 6 9 13 18 18 16 15 15 16 20 23 26 27 26 26 22 16 13 14 18 20 15 11 9 6 6 5 4 5 7 12 13 12 14 18 19 19 20 21 23 23 24 25 24 23
22 20 18 13 11 11 14 19 19 15 14 13 12 13 11 9 10 7 4 3 1 1 4 6 4 1 4 8 9 6 2 3 4 3 2 2 3 3 3 2 3 6 10 13 16 17 16 16 16 19 24 28 29 26 26 29 24 14 12 14 16 18 16 12 10 8 7 6 5 5 6 10 15 15 15 18 21 21 20 22 24 25 27 26 25 23
20 21 19 12 10 13 17 19 18 15 13 13 13 15 10 3 3 4 2 2 3 3 4 5 4 2 11 11 5 2 1 5 5 4 6 6 5 4 2 1 2 6 11 14 16 18 19 18 18 20 24 29 27 24 25 24 14 7 11 15 14 16 17 14 11 9 8 7 6 6 6 9 14 17 18 18 20 21 21 22 24 25 25 24 21 21
14 18 20 14 12 17 19 19 18 15 15 16 13 14 12 4 3 2 2 0 2 5 6 5 2 7 14 9 1 1 1 4 5 7 9 8 8 7 4 2 3 6 11 13 15 19 22 23 23 22 25 27 25 24 24 18 11 9 13 16 13 15 17 14 14 12 9 8 8 9 9 10 13 18 21 19 18 21 23 23 25 24 23 21 19 19
9 11 16 14 11 16 18 18 18 15 16 18 13 13 15 8 3 3 2 2 3 2 5 6 2 9 15 9 2 1 1 5 7 8 9 9 10 9 9 6 4 5 8 11 13 17 21 24 25 24 25 26 24 22 21 18 15 13 16 19 16 18 19 17 16 15 12 11 9 10 11 12 14 19 21 19 18 21 24 25 25 24 22 20 19 20
9 8 13 15 13 14 15 16 16 13 15 19 15 11 14 14 11 7 3 6 6 2 2 3 5 10 16 13 7 4 2 4 5 6 7 8 8 9 10 11 10 9 8 10 12 14 17 19 20 22 23 23 21 20 19 18 16 14 17 20 19 21 23 20 19 18 17 16 14 12 12 13 15 18 18 17 19 22 24 25 24 24 23 22 21 21
9 8 11 15 16 15 13 14 15 13 13 18 17 14 16 17 17 13 6 6 6 2 3 7 12 14 15 12 9 5 4 4 3 5 5 6 7 8 10 11 12 12 11 12 13 13 14 14 15 18 20 19 16 16 17 16 13 14 18 21 23 23 18 15 17 19 20 19 17 15 15 16 18 18 18 18 19 22 24 24 24 23 23 23 22 21
8 9 9 13 17 18 15 14 14 13 14 17 18 20 19 15 16 14 7 2 3 1 3 8 15 17 12 7 6 5 3 4 5 7 7 7 8 8 9 10 10 10 10 11 12 12 13 12 12 14 16 16 13 13 15 13 9 10 14 21 25 19 12 12 17 18 20 20 18 16 16 18 19 20 20 20 21 23 24 25 26 25 24 24 24 22
8 8 8 11 15 16 14 15 14 15 16 14 13 18 17 10 10 14 8 2 3 2 0 5 11 12 7 3 5 4 1 3 6 8 8 8 9 9 8 6 7 8 7 7 7 7 7 8 10 11 12 13 12 11 13 12 9 7 8 13 19 16 13 16 16 15 18 20 21 20 20 20 21 22 23 23 24 27 29 29 29 27 25 25 25 23
9 6 5 9 11 9 11 18 18 17 17 14 11 14 14 9 9 13 11 6 5 4 1 3 4 5 4 3 2 2 1 3 6 7 8 9 9 8 6 5 7 8 7 6 6 5 4 5 7 8 9 10 10 10 11 11 9 5 2 4 12 17 17 17 15 14 17 20 24 24 23 22 22 24 24 24 26 31 33 32 32 30 27 26 25 22
16 10 6 8 9 5 6 16 20 18 19 19 17 15 13 11 10 10 11 10 7 4 4 3 1 2 3 1 1 2 0 3 6 7 9 10 9 7 5 5 6 7 6 6 6 5 7 8 8 8 10 10 9 9 9 9 7 5 4 5 10 14 14 15 16 17 17 20 25 26 25 25 24 24 23 23 28 33 33 31 31 30 27 26 25 22
20 16 13 9 7 11 8 9 14 15 18 19 17 12 7 8 10 8 7 9 8 5 5 6 3 3 4 1 0 1 2 4 6 7 9 9 9 7 5 6 6 6 7 8 7 7 8 8 6 6 8 8 7 7 8 8 6 7 9 10 11 11 12 15 18 20 20 24 28 27 25 26 26 24 23 24 29 32 29 29 30 29 27 25 24 21
19 18 17 8 13 16 9 7 9 8 11 13 12 8 4 4 8 8 5 6 7 5 6 9 6 6 7 1 4 4 6 7 7 9 9 8 8 7 7 8 8 9 10 10 9 8 6 6 4 4 5 5 5 7 8 8 8 9 11 13 13 13 14 16 18 19 21 25 28 27 26 27 28 26 25 25 29 31 28 28 30 28 26 23 22 21
17 18 19 10 17 18 12 10 8 6 8 9 8 8 6 5 7 7 4 6 8 6 8 8 4 7 10 4 9 9 8 9 9 10 10 9 9 10 11 11 10 11 11 10 9 7 6 5 5 5 7 8 8 8 9 9 10 11 13 15 16 16 17 19 20 21 22 24 26 27 27 28 29 28 26 26 29 31 28 29 30 27 26 23 21 21
14 16 18 12 10 12 10 8 7 5 7 7 8 7 5 6 6 5 4 5 5 5 8 7 4 10 14 10 13 11 9 10 10 11 11 11 11 12 12 13 12 11 8 7 7 7 6 5 4 5 7 8 8 9 10 12 13 15 16 18 19 19 19 21 23 23 23 25 27 27 27 28 30 29 28 28 29 29 28 29 29 27 27 26 24 23
12 12 13 9 6 5 6 5 5 5 5 5 6 5 4 4 3 4 5 5 4 6 9 10 12 16 17 16 15 12 11 10 10 12 12 11 12 12 12 12 12 9 6 6 6 5 5 4 3 5 6 7 8 8 10 12 16 18 19 20 20 19 19 22 24 22 20 22 25 27 28 30 31 30 30 30 30 29 29 30 30 29 29 28 27 26
12 10 7 7 8 7 6 7 7 4 4 5 4 1 2 2 2 4 5 5 7 10 9 12 19 22 20 19 16 14 13 10 10 12 12 11 11 12 11 9 7 6 5 4 2 2 2 3 3 4 5 6 7 8 9 11 14 17 20 21 21 21 20 22 23 20 17 19 21 25 30 31 31 31 31 31 31 30 30 31 31 31 30 28 27 26
14 12 8 7 10 10 7 7 6 3 3 5 3 0 1 1 1 3 4 6 11 11 11 15 22 23 20 19 15 13 12 11 10 12 14 13 12 12 10 8 6 2 2 2 1 1 1 0 1 2 3 3 4 5 7 8 11 13 16 19 21 21 21 21 21 20 19 19 19 22 28 31 31 32 33 33 32 30 30 31 31 32 31 26 25 26
14 14 11 8 10 9 6 5 3 2 4 5 3 2 1 2 2 4 7 12 14 11 12 20 24 20 18 17 14 12 13 12 11 13 15 14 13 11 8 8 5 1 1 0 0 1 2 3 4 3 3 3 3 4 5 6 7 10 12 15 17 19 19 19 19 20 22 23 22 23 27 30 31 32 34 34 33 31 30 32 32 32 31 26 25 27
13 15 13 11 12 10 7 5 2 2 5 6 5 5 2 2 3 6 12 15 13 11 16 23 24 20 17 14 12 12 13 12 10 11 13 13 12 10 8 7 4 0 1 1 0 2 4 5 7 6 6 6 4 5 6 6 7 8 9 11 12 14 16 17 17 19 20 22 25 25 28 31 31 32 35 36 34 33 32 32 33 32 31 28 29 30
13 14 12 12 14 13 8 7 4 4 5 7 11 11 7 6 6 7 10 12 12 16 20 23 24 21 17 13 10 9 9 9 7 8 10 9 9 8 7 6 2 2 1 1 2 4 5 6 7 6 7 7 7 7 8 8 8 8 8 8 8 9 11 14 16 19 19 21 24 26 28 31 32 32 34 37 37 35 33 33 34 33 31 32 33 32
11 15 13 10 13 14 11 10 8 7 7 9 12 12 8 6 7 7 9 11 15 19 21 21 21 19 15 11 8 6 6 7 6 8 8 6 5 4 4 5 3 0 1 2 3 4 5 6 6 6 6 7 7 9 9 8 8 7 7 7 8 9 10 10 12 16 18 20 22 23 26 29 30 30 33 37 37 36 34 34 35 34 33 35 36 34
10 14 13 9 11 15 15 12 11 9 7 6 8 8 6 5 5 6 9 12 14 17 18 18 18 16 13 10 7 7 7 8 9 10 7 4 3 3 2 2 3 2 3 4 4 4 5 5 5 6 6 6 6 7 7 8 8 8 8 8 9 10 11 11 11 11 14 17 19 20 22 26 27 28 31 35 36 35 35 34 36 37 36 37 38 37
11 12 13 11 13 17 17 15 13 8 3 3 6 6 4 2 2 3 8 12 13 14 15 14 15 14 11 8 7 8 8 8 10 10 5 2 3 4 2 3 4 4 5 6 5 4 4 2 4 6 7 5 4 5 7 8 9 10 11 11 11 11 11 12 13 12 11 13 15 16 17 20 23 24 27 32 35 36 36 35 36 38 38 39 39 37
12 13 12 10 13 18 19 15 8 3 3 7 7 4 2 0 1 1 6 10 11 11 11 11 11 11 9 7 8 9 9 9 11 9 5 3 4 5 4 4 4 4 5 5 4 4 3 2 4 6 6 6 6 7 8 10 11 12 13 12 12 12 12 13 14 15 14 11 11 12 14 16 19 20 24 28 31 33 34 34 35 37 38 40 39 37
11 12 12 12 15 18 15 9 4 6 10 11 8 7 7 3 1 1 4 6 8 8 9 9 8 7 7 6 7 9 9 9 10 9 5 4 4 4 4 5 5 5 6 6 4 4 5 6 7 6 5 6 9 10 10 11 12 12 13 13 13 13 15 16 15 15 15 12 9 7 8 14 16 17 22 25 27 30 32 32 33 37 39 40 38 36
9 11 13 14 14 14 12 9 11 13 12 11 11 12 10 6 5 5 5 5 7 8 8 9 9 8 9 9 9 10 9 9 8 7 5 3 3 4 6 6 5 5 6 6 4 4 8 10 9 6 6 9 12 12 13 14 14 14 14 15 15 14 16 18 17 16 14 12 10 7 8 15 16 15 19 22 24 27 29 29 32 37 41 41 39 37
9 11 12 11 10 14 16 14 10 7 7 11 15 13 10 9 8 7 5 4 6 6 6 8 9 10 10 10 10 10 8 6 6 5 4 3 3 3 4 5 5 5 4 5 4 5 10 12 9 7 7 10 13 14 15 17 17 16 16 17 17 16 16 18 18 17 15 12 10 10 12 15 14 15 19 22 23 25 27 29 33 36 37 38 37 36
10 9 9 8 11 17 18 13 6 4 7 14 16 12 11 11 9 8 6 4 5 5 5 6 6 6 7 7 7 7 6 4 5 5 5 5 4 3 2 2 4 4 4 5 6 8 11 12 11 10 11 12 13 14 17 19 20 20 19 17 17 16 16 17 16 16 14 11 9 12 13 13 16 21 24 23 24 26 28 31 34 35 34 33 34 35
10 9 8 10 13 16 15 12 7 5 8 14 15 12 11 11 10 8 5 4 5 5 5 6 5 4 5 5 6 7 6 5 6 5 5 6 5 5 5 5 5 6 7 8 8 10 11 11 11 11 13 14 15 17 18 20 21 22 20 18 17 15 15 16 14 12 11 10 9 11 13 16 20 27 30 28 26 25 27 31 34 33 32 32 32 35
10 10 10 11 14 14 13 12 8 6 11 16 16 13 11 11 12 9 6 6 8 5 5 6 5 5 5 5 6 6 5 4 4 4 5 5 5 5 5 6 6 7 9 10 10 11 11 10 11 12 13 15 16 17 18 20 22 22 21 19 18 17 16 16 15 12 9 7 8 8 10 14 20 26 31 34 32 28 26 29 32 33 33 34 34 34
12 10 10 12 14 13 12 12 9 7 13 17 16 14 15 13 11 8 8 10 9 6 6 6 5 5 5 4 5 5 3 3 2 2 2 2 1 1 2 4 5 6 7 8 9 10 10 10 11 12 13 14 15 16 18 20 21 22 21 21 20 18 17 17 16 13 10 8 6 6 8 11 14 18 24 30 33 30 28 29 33 34 34 34 33 34
14 13 13 14 14 12 12 12 7 5 13 17 16 16 16 12 8 8 10 11 9 7 6 4 3 4 4 4 4 5 5 5 4 4 3 2 1 1 3 3 4 4 5 6 7 7 8 9 10 11 12 13 13 14 16 18 19 19 20 20 19 18 16 16 16 14 12 11 8 6 6 9 13 16 18 22 26 28 29 30 32 33 33 32 33 35
15 15 15 16 14 11 11 9 6 8 16 18 16 15 14 10 8 11 12 10 8 7 6 4 3 4 3 4 5 6 7 7 7 6 4 2 2 2 3 4 4 5 5 5 5 6 6 7 8 9 9 10 11 12 13 14 14 15 16 16 16 16 15 15 15 13 12 13 12 9 6 6 8 12 16 19 21 24 27 28 29 30 32 33 33 33
13 13 14 14 13 12 12 12 11 14 17 17 14 13 12 11 11 12 11 9 8 7 6 5 4 4 5 5 6 6 7 8 6 5 4 3 2 3 5 6 6 5 5 5 5 6 6 6 6 7 7 7 8 9 10 11 11 11 11 11 12 12 12 12 12 12 11 11 11 10 8 6 5 6 10 14 17 21 22 24 24 25 26 27 26 28
11 12 13 13 14 14 14 14 13 14 14 14 12 11 11 12 12 10 8 7 6 6 6 5 4 4 5 5 6 6 6 6 5 5 4 3 3 4 6 7 7 7 6 5 5 5 6 6 6 7 7 7 7 8 9 10 9 8 8 8 8 9 8 8 7 8 8 7 6 6 6 6 5 5 5 8 12 16 19 22 24 24 24 25 25 26
12 11 12 14 17 17 16 14 13 14 15 13 13 14 14 13 11 9 7 6 6 6 7 6 7 7 7 8 8 7 7 7 7 7 7 6 7 7 7 7 7 7 7 6 6 6 6 6 6 7 7 7 7 7 8 8 8 7 6 6 6 6 6 5 5 4 4 3 2 1 1 1 2 2 2 3 6 10 14 18 21 22 22 23 24 24
15 13 15 18 20 20 20 18 17 18 18 16 14 15 14 12 11 10 8 7 7 7 7 8 9 9 10 10 10 9 9 10 9 9 8 8 8 8 7 6 6 6 5 5 5 5 6 6 7 7 7 7 7 7 6 6 6 6 5 5 5 5 4 4 4 4 3 2 2 2 1 1 1 1 1 2 3 5 8 11 14 16 17 19 20 20
17 17 19 21 22 23 22 21 19 19 20 17 14 13 12 10 9 8 7 7 7 7 7 8 8 9 9 9 8 8 8 8 8 7 6 6 6 6 6 6 6 7 7 6 5 5 6 6 7 7 7 8 7 7 6 6 5 4 4 4 4 4 4 4 4 4 4 3 2 1 1 1 1 2 2 2 3 4 5 7 8 10 11 13 15 15
15 18 19 21 23 23 21 17 15 16 19 18 14 12 12 10 9 9 10 10 10 10 10 9 9 9 8 8 8 7 7 6 5 5 4 4 5 5 5 5 6 7 8 8 8 8 8 8 8 9 9 9 8 7 6 6 6 5 5 4 4 4 4 4 4 4 4 4 3 1 1 1 2 2 3 3 4 4 4 5 5 6 6 7 8 9
12 15 16 19 23 23 20 16 11 12 17 20 18 16 16 15 15 16 17 17 18 18 17 15 14 13 13 13 13 12 11 10 10 8 8 8 8 7 7 6 6 6 6 6 6 7 8 9 9 10 10 11 10 10 8 7 6 5 5 5 5 5 4 4 4 3 3 3 3 2 1 1 2 2 2 3 3 3 4 5 5 5 5 5 5 5
Wind_Direction
209 214 217 218 217 212 209 212 215 213 212 221 246 266 277 283 283 284 282 286 288 249 214 212 213 215 238 225 239 297 288 315 315 239 223 229 243 264 273 281 282 272 267 267 263 265 273 276 279 290 295 291 290 291 294 289 278 270 268 271 275 281 291 282 255 252 247 249 254 247 239 235 224 208 210 220 220 222 222 219 218 216 213 209 207 207
212 219 220 218 216 213 213 214 216 220 227 236 248 265 275 280 284 283 288 301 269 219 204 199 200 207 207 196 292 302 276 265 278 277 267 264 267 269 266 267 268 263 258 258 266 271 274 278 283 290 295 293 295 299 298 287 276 271 267 270 277 284 294 291 275 277 268 256 254 250 239 235 228 209 204 211 209 213 216 212 212 213 210 206 204 203
211 221 218 213 212 210 210 213 216 222 230 235 241 260 270 274 284 281 280 323 188 199 194 189 199 210 203 212 298 321 314 275 261 268 277 279 272 263 257 256 256 252 247 254 269 272 276 283 285 289 293 292 295 299 298 288 280 274 268 271 277 286 300 301 283 282 273 259 256 252 239 232 227 211 203 208 203 197 206 210 210 211 209 204 201 199
210 219 210 203 207 206 206 208 211 218 223 226 233 251 263 267 279 272 236 128 147 211 203 194 204 211 217 246 297 346 338 294 264 261 268 280 285 278 266 255 250 248 250 259 267 267 278 288 286 291 294 288 290 295 293 286 279 274 270 273 280 293 309 308 289 277 270 266 260 243 230 222 214 205 202 209 207 194 200 209 211 212 208 201 199 198
206 196 185 193 201 201 202 202 203 210 217 226 239 249 257 257 258 260 255 262 317 350 337 208 210 219 235 262 302 359 334 293 276 268 269 279 289 290 275 261 254 254 259 264 267 267 281 299 296 295 291 278 282 292 293 284 273 270 271 275 284 297 310 313 303 281 267 271 263 234 225 215 204 201 198 204 213 203 201 209 210 211 206 199 198 199
196 151 169 197 199 198 196 195 199 208 223 239 243 235 242 246 244 258 268 283 302 322 201 211 210 217 235 276 330 347 308 298 299 289 280 282 289 290 278 270 259 254 258 259 262 266 278 294 288 281 276 267 278 292 290 279 268 268 272 277 285 292 307 323 313 286 272 275 262 235 228 209 198 198 193 197 215 210 206 213 210 208 205 199 198 201
198 171 195 208 207 205 199 198 202 212 232 242 233 219 231 244 249 257 271 289 291 278 212 221 218 207 246 323 331 326 314 318 318 303 290 286 290 291 283 274 263 260 261 256 254 260 269 279 277 272 265 257 268 277 274 273 270 272 275 278 284 285 304 321 309 290 282 278 260 234 222 203 195 198 191 195 208 206 206 212 210 207 204 197 197 201
205 204 217 219 228 224 214 212 207 214 232 232 219 219 236 248 250 254 283 295 285 278 253 224 222 222 262 356 347 334 335 343 332 317 294 285 283 284 283 264 248 256 264 256 254 259 269 283 282 268 253 250 254 252 255 267 271 273 277 276 276 279 294 302 293 289 282 271 256 232 216 204 201 203 195 194 203 207 208 210 208 206 201 196 197 200
202 216 221 224 234 233 231 231 216 209 224 225 223 236 247 246 243 257 293 301 291 282 258 182 178 209 239 42 51 36 52 118 131 233 268 275 271 273 292 219 217 235 247 251 254 259 269 279 274 258 248 248 247 245 245 251 256 266 283 284 273 266 269 278 277 271 263 251 239 232 219 210 213 210 197 194 202 210 211 209 206 203 200 196 196 199
212 222 229 238 238 236 236 231 213 196 205 220 231 243 244 231 235 267 288 291 295 288 248 255 358 100 47 36 61 100 98 115 153 172 197 226 227 233 232 146 162 199 222 237 244 248 256 261 257 249 246 245 245 246 243 243 245 254 279 289 275 262 251 256 261 235 229 231 222 225 223 226 228 211 197 197 204 211 211 210 206 202 201 198 196 200
227 229 236 249 248 239 224 208 199 198 211 222 228 237 240 227 235 262 271 274 298 305 239 263 323 72 59 40 51 78 82 98 161 168 169 202 238 243 223 189 159 162 180 206 226 235 241 245 244 241 243 243 243 245 247 248 245 243 260 277 275 263 245 241 245 220 218 223 209 216 222 231 228 209 205 208 207 210 209 207 205 201 201 199 199 202
234 236 232 241 252 231 205 194 197 217 234 224 217 232 242 233 227 233 229 225 277 276 235 237 259 325 85 75 65 78 126 205 210 213 241 280 290 276 261 229 187 168 166 179 202 219 227 233 235 236 240 243 244 248 253 251 246 244 252 264 272 261 245 239 236 217 216 213 203 222 229 235 227 213 216 218 210 210 208 204 203 202 203 202 199 201
239 234 224 231 245 221 203 196 198 214 223 212 217 228 227 208 192 213 229 158 172 232 238 225 239 83 94 95 90 108 213 245 238 259 286 302 307 297 299 277 193 172 172 180 195 208 217 227 235 239 244 248 252 261 263 258 263 287 268 265 266 251 239 239 235 218 209 206 207 228 236 238 231 221 222 225 217 212 209 206 204 204 207 205 201 202
245 232 226 232 229 212 208 203 195 195 200 206 222 219 203 152 90 215 264 84 230 257 244 238 230 126 115 105 114 120 25 284 274 290 298 303 304 301 301 278 207 182 184 195 205 209 215 226 237 246 252 254 256 261 267 277 301 305 269 260 250 232 229 233 238 229 210 205 211 226 236 236 237 232 225 221 220 216 209 207 205 205 209 207 204 205
240 234 227 223 207 200 206 204 198 197 197 205 218 214 205 194 153 179 193 168 194 249 240 246 235 148 137 129 158 154 339 293 288 296 301 305 304 302 302 297 274 231 214 218 219 218 221 228 239 250 258 261 261 262 268 275 275 261 253 253 238 219 215 216 229 232 217 212 218 226 239 239 241 246 234 215 212 215 209 206 206 205 206 207 206 206
233 251 227 213 200 193 197 198 205 213 205 205 213 215 213 215 209 199 180 182 175 119 195 182 120 138 144 144 159 175 243 264 281 289 289 296 300 300 299 295 287 277 263 249 241 236 236 239 247 257 264 267 269 270 270 268 260 245 243 249 241 222 212 205 213 222 218 217 223 228 241 248 246 252 247 222 209 212 209 207 209 208 207 208 208 205
215 240 221 208 204 200 204 207 216 228 212 201 206 214 215 219 218 210 198 195 178 127 198 150 121 134 149 154 162 173 224 230 251 278 281 288 291 294 292 289 287 284 278 271 264 259 258 260 266 271 274 273 270 268 269 267 260 250 242 242 241 235 226 211 210 221 225 221 223 225 233 247 248 247 248 233 216 212 210 209 211 212 212 213 211 206
213 231 213 209 215 212 215 217 218 224 210 193 200 216 220 220 218 208 194 162 143 158 212 151 138 152 162 164 162 168 222 233 251 272 285 295 290 285 280 275 274 273 274 274 272 273 273 276 282 282 281 280 275 269 273 276 274 275 263 244 240 240 233 218 217 229 240 238 237 236 234 243 247 243 240 233 221 214 211 211 212 214 214 214 212 208
222 243 214 202 218 215 209 211 207 206 206 198 202 214 215 213 211 203 190 132 136 176 249 115 136 156 173 192 169 155 221 248 263 272 280 288 285 280 277 272 266 258 258 264 270 280 281 282 291 291 287 287 285 280 281 289 292 298 292 254 238 231 218 219 228 243 252 250 250 249 243 242 244 242 237 227 221 217 212 208 209 211 214 213 211 209
206 240 217 187 205 209 199 204 202 197 200 202 207 215 218 224 222 206 194 179 164 175 169 106 128 164 193 211 167 89 9 278 275 278 281 285 285 284 280 278 265 247 236 245 260 276 283 297 312 312 307 302 300 297 291 295 297 290 305 244 225 220 215 218 231 243 247 247 249 250 247 242 240 243 241 228 222 222 216 209 205 206 209 210 210 209
211 222 217 185 181 148 169 200 203 200 203 207 212 217 219 221 219 202 193 191 179 168 152 130 133 195 177 177 108 88 55 268 270 273 279 285 289 289 279 271 262 249 249 258 263 274 285 306 324 317 309 309 313 309 293 291 298 275 240 217 217 218 212 213 226 234 238 241 244 248 246 239 234 239 243 236 229 227 222 215 208 202 201 205 209 209
217 220 224 214 137 100 112 175 187 195 205 208 208 209 208 209 203 183 183 194 183 178 167 151 161 171 143 129 242 152 217 237 251 262 269 280 285 283 270 266 266 264 270 278 285 288 285 293 304 295 291 295 297 292 278 273 277 267 255 240 235 230 214 214 227 234 236 235 236 243 241 234 232 233 237 238 237 234 228 222 216 202 194 200 206 207
209 211 219 206 103 99 115 147 156 174 192 191 182 174 164 190 194 181 180 179 153 143 149 135 133 140 127 165 232 207 227 236 248 262 268 282 292 294 286 278 280 281 279 285 294 290 272 253 239 231 234 236 245 255 258 257 251 251 257 255 251 245 227 222 227 229 230 227 229 237 236 231 231 232 234 237 238 236 229 225 221 203 190 196 202 204
191 197 205 175 112 113 127 147 159 162 177 176 146 140 143 126 145 151 146 148 134 131 138 120 108 146 138 185 232 222 229 238 249 261 269 283 294 301 299 290 288 288 285 287 283 264 238 216 206 206 209 213 223 232 235 238 234 236 248 255 257 253 241 232 226 219 217 219 224 233 234 232 232 232 233 235 237 236 229 225 222 204 190 196 200 202
176 181 193 185 137 132 130 145 176 166 172 165 107 101 128 123 123 118 123 148 130 136 157 141 129 155 158 194 228 232 232 234 250 264 269 280 290 299 301 295 293 291 281 266 248 227 208 197 194 195 203 214 223 228 228 226 226 233 245 254 258 258 250 242 234 225 220 221 226 230 231 232 233 232 231 233 237 237 232 228 225 209 195 198 203 205
172 169 180 184 165 157 149 160 175 158 168 158 103 78 94 116 129 135 156 172 142 151 169 153 141 152 174 202 217 226 231 233 252 265 268 278 290 296 296 294 294 293 277 245 223 201 183 177 182 186 195 211 219 227 233 229 230 239 248 254 257 257 253 248 244 239 233 231 234 235 234 234 234 232 231 232 234 235 232 229 227 217 201 197 202 206
175 161 161 159 135 118 121 138 149 157 168 149 130 44 43 69 95 139 163 185 163 153 146 148 157 163 181 204 214 225 235 243 254 262 268 274 283 294 299 300 294 282 274 261 216 165 166 162 164 173 181 201 216 223 230 232 237 244 251 256 259 260 257 254 253 251 245 239 240 241 239 238 237 236 235 234 232 231 230 228 228 223 210 198 198 203
177 155 133 139 130 113 108 126 141 170 159 135 136 210 331 9 93 163 177 173 165 152 130 150 171 177 184 198 209 220 232 243 249 258 268 273 284 300 307 309 303 266 256 286 39 48 350 75 173 189 185 201 223 232 233 236 242 246 251 256 261 264 264 262 261 260 252 242 238 239 238 237 237 238 239 237 233 232 230 228 227 224 215 202 195 201
172 146 133 144 138 131 137 127 114 207 175 153 155 178 243 277 243 205 174 164 172 177 165 170 181 187 188 194 202 213 225 235 243 255 265 274 290 304 308 308 307 255 176 258 2 350 337 330 321 310 288 269 265 267 262 261 261 259 259 259 263 270 273 270 266 261 256 249 242 239 238 236 235 236 238 237 235 234 232 228 225 221 215 204 198 204
160 127 132 161 149 138 150 129 79 230 180 150 127 120 139 190 188 180 169 170 181 185 178 181 185 187 186 188 199 215 230 242 253 266 273 281 293 301 309 314 312 79 95 117 233 311 309 312 315 316 309 305 305 301 295 295 292 286 283 278 275 278 280 280 274 263 257 252 247 243 240 238 235 235 237 236 233 232 232 228 223 219 214 206 202 207
168 132 136 164 144 128 145 151 153 201 185 141 118 109 105 118 135 148 155 161 163 163 175 185 185 183 183 184 191 209 232 247 262 282 290 295 306 316 324 328 343 93 92 156 273 295 294 303 309 309 310 312 312 308 303 303 304 303 302 298 296 296 291 287 280 269 259 254 250 246 243 241 239 235 235 235 231 229 230 226 218 213 211 207 206 210
168 152 150 159 138 135 155 165 174 193 177 140 124 113 106 117 126 130 139 147 152 157 172 185 184 184 186 186 192 209 228 242 260 281 288 297 309 307 309 321 331 311 274 293 315 312 299 299 303 304 308 307 305 304 299 297 304 308 311 313 317 322 318 305 290 274 261 253 251 250 248 246 242 237 235 232 227 224 225 221 214 209 208 208 210 212
146 152 152 148 137 146 159 161 164 168 149 121 115 105 97 112 122 126 140 154 162 165 174 186 190 191 192 189 197 221 235 248 267 280 284 289 294 274 257 318 337 334 328 331 333 323 307 305 318 328 322 308 292 291 294 300 309 312 312 316 323 332 334 328 316 292 267 256 252 249 249 248 243 237 233 228 224 223 222 217 211 209 207 207 210 213
139 144 149 153 150 154 159 155 149 145 125 110 111 99 83 77 91 141 154 163 172 177 185 198 199 196 197 199 210 230 242 252 269 279 270 257 305 302 275 297 313 326 340 338 332 328 324 332 349 344 340 336 315 300 300 304 311 317 315 317 326 336 342 341 337 325 300 275 260 257 256 249 242 238 234 226 221 221 221 216 208 205 205 206 210 213
147 145 149 162 159 155 159 158 144 111 131 141 135 133 156 331 345 199 172 171 175 179 188 199 199 198 205 216 229 244 251 256 269 277 266 253 281 282 275 295 313 323 334 341 355 6 10 2 350 345 345 346 337 329 321 310 308 315 318 320 327 334 337 340 340 336 329 311 285 278 268 247 234 233 236 231 223 222 222 215 207 204 204 206 209 212
154 151 150 152 149 150 158 162 144 133 141 145 150 159 166 164 127 143 159 171 179 183 191 198 199 202 213 227 246 260 268 270 272 276 277 275 272 274 298 326 329 326 331 331 339 4 0 338 327 326 325 327 329 332 334 327 319 319 319 319 324 328 332 334 335 337 341 334 315 298 255 236 228 224 230 228 221 219 218 213 208 207 207 207 208 211
166 158 150 144 146 155 148 119 121 137 144 158 168 166 167 170 161 156 160 176 187 193 204 212 219 228 235 247 261 270 277 279 274 270 273 273 267 280 300 308 299 304 324 314 294 333 345 332 322 320 317 322 326 326 330 334 333 329 327 325 325 327 331 333 331 334 342 336 321 307 257 247 239 221 222 227 218 212 213 212 208 208 208 208 208 211
175 163 160 153 154 164 149 121 121 148 169 182 182 181 187 186 176 175 177 173 179 185 198 210 221 232 239 247 257 266 277 278 264 255 244 219 221 261 283 289 283 288 310 303 292 325 330 321 316 315 306 308 314 316 320 326 327 326 327 328 328 328 331 335 332 329 336 335 308 286 275 271 255 223 217 222 215 208 210 210 206 206 210 211 211 214
178 173 188 176 160 163 154 135 139 188 185 185 185 184 192 196 188 179 178 177 180 186 201 210 216 229 238 243 246 252 265 266 253 246 225 207 212 231 241 262 269 279 300 312 321 326 318 311 310 307 301 300 304 308 315 322 325 326 326 326 327 328 330 335 333 327 331 330 292 261 253 257 245 226 219 218 215 212 212 208 205 206 211 211 212 216
190 187 194 175 162 166 159 140 145 175 176 179 181 180 190 195 179 165 171 185 175 168 184 203 210 220 231 242 238 236 245 255 259 254 230 214 214 222 235 241 242 258 278 289 300 303 301 303 305 303 302 301 302 307 314 319 323 326 327 327 330 332 331 332 331 326 325 319 288 248 218 205 202 201 202 207 213 216 213 206 204 205 209 211 215 220
183 177 174 167 165 172 166 144 138 163 168 169 175 180 181 177 172 178 187 170 160 155 162 175 187 196 205 220 224 223 231 246 255 251 234 224 213 213 234 246 245 255 265 267 272 278 286 297 302 301 303 302 302 307 314 318 321 324 327 330 332 332 330 327 325 325 325 315 291 260 220 193 179 174 177 187 199 210 213 209 208 211 214 217 219 223
165 154 150 154 159 167 161 140 125 147 164 168 173 175 172 173 184 197 183 160 156 159 155 157 168 175 181 196 200 198 206 215 220 213 203 203 214 243 274 274 267 268 271 271 274 276 283 294 299 301 304 303 304 309 314 319 322 321 320 323 325 326 323 318 315 316 321 320 303 278 253 226 203 183 174 179 189 200 208 210 212 215 219 222 224 228
167 150 140 145 148 146 140 130 119 153 168 170 172 170 172 183 189 177 166 162 163 160 150 151 164 165 172 190 186 181 177 164 143 130 131 122 64 335 329 318 307 308 305 300 297 294 292 293 293 295 299 300 303 305 309 314 315 310 308 310 312 315 313 306 304 305 308 311 308 295 277 257 239 226 211 200 197 197 202 207 212 217 221 223 224 228
167 158 151 150 150 145 139 134 142 167 169 172 177 177 180 183 171 162 161 159 158 151 142 143 149 148 158 174 174 170 164 152 139 126 114 86 46 3 348 341 336 333 329 325 323 318 309 301 296 296 297 298 299 298 300 304 302 298 299 299 299 303 301 293 291 293 295 299 301 299 292 276 261 250 240 231 221 212 208 208 210 213 213 210 207 211
159 161 163 162 160 158 150 141 146 160 167 173 181 187 187 175 162 161 158 151 150 146 138 145 154 150 152 154 151 146 139 133 128 118 100 75 55 25 8 4 1 354 349 344 341 337 328 317 309 305 301 298 300 298 296 296 294 296 297 294 290 291 288 283 282 283 286 290 296 303 305 300 290 269 251 244 239 232 224 217 214 214 212 210 208 207
158 163 169 166 156 144 133 132 144 155 161 167 170 172 171 163 156 153 144 137 139 133 127 133 133 122 120 114 108 110 114 112 107 97 81 62 46 30 17 11 5 3 6 8 2 353 343 335 329 322 314 311 308 303 296 292 291 294 294 290 288 286 280 274 269 269 274 278 284 299 305 303 302 290 265 253 248 244 240 233 231 231 229 227 227 221
147 161 169 164 153 138 126 128 140 141 139 145 149 148 151 150 143 133 125 125 128 122 116 110 99 89 83 78 73 71 76 77 72 65 56 45 36 31 20 9 2 2 6 6 3 1 356 353 349 338 331 329 320 309 301 295 292 293 290 284 285 285 279 269 253 241 243 239 235 258 301 322 327 306 269 249 242 243 243 238 235 233 227 220 217 213
139 150 155 155 149 140 133 134 137 134 132 137 142 144 146 145 138 134 134 134 131 121 110 100 90 82 75 72 70 65 64 64 60 57 52 42 35 29 17 3 355 351 350 348 345 343 342 345 346 344 341 337 331 324 320 313 305 300 292 281 276 273 267 256 244 238 235 211 181 175 171 145 115 118 152 173 192 211 222 224 224 222 215 208 204 200
141 146 151 154 145 133 131 137 140 138 135 137 143 144 141 137 137 139 135 125 116 104 94 87 84 81 77 73 71 68 63 58 53 49 43 33 27 18 3 351 344 338 335 334 330 325 327 331 332 334 335 332 329 329 327 321 319 313 300 287 275 267 263 258 250 248 252 253 227 182 190 212 213 198 185 181 180 186 196 201 205 206 205 204 201 196
142 145 152 153 139 127 126 133 143 148 141 134 135 134 128 127 130 126 117 111 104 95 89 85 84 87 86 80 73 68 62 57 50 38 25 20 18 10 357 346 339 332 327 324 322 320 323 323 318 318 322 322 321 322 318 313 315 316 310 301 289 277 277 280 279 271 264 262 261 243 213 238 245 240 233 227 220 215 214 215 216 215 213 213 210 203
130 136 143 141 130 125 124 124 136 154 143 130 126 123 119 119 121 116 109 105 101 98 95 93 92 92 90 86 83 80 76 71 67 63 58 54 48 40 28 17 8 360 350 339 334 332 330 324 316 313 315 315 316 318 317 312 314 318 316 308 300 294 289 283 284 292 292 291 295 297 283 261 256 256 256 253 250 242 233 228 230 229 227 227 227 224
Height
3093 3093 3093 3094 3095 3098 3101 3103 3105 3107 3108 3109 3110 3111 3111 3109 3108 3109 3109 3109 3109 3109 3109 3112 3114 3116 3118 3118 3118 3119 3119 3118 3118 3119 3120 3122 3123 3124 3125 3126 3127 3127 3128 3129 3129 3129 3130 3130 3131 3132 3132 3132 3132 3132 3133 3132 3132 3132 3131 3130 3129 3129 3131 3132 3133 3135 3136 3135 3135 3135 3135 3134 3136 3137 3138 3141 3142 3143 3144 3144 3145 3146 3146 3147 3148 3149
3091 3090 3091 3093 3096 3098 3101 3103 3105 3106 3107 3108 3109 3111 3111 3108 3107 3107 3108 3107 3107 3108 3110 3112 3114 3116 3117 3118 3118 3119 3120 3120 3119 3119 3120 3121 3122 3122 3124 3125 3125 3126 3126 3127 3127 3128 3128 3129 3130 3131 3131 3132 3132 3132 3132 3131 3131 3131 3130 3128 3128 3129 3130 3131 3132 3133 3133 3132 3133 3134 3134 3133 3134 3135 3136 3138 3140 3141 3142 3143 3144 3145 3145 3146 3147 3148
3089 3088 3089 3093 3095 3097 3099 3102 3103 3105 3106 3107 3109 3110 3110 3108 3107 3107 3108 3107 3107 3109 3111 3112 3114 3115 3116 3117 3118 3118 3118 3119 3119 3117 3118 3119 3120 3120 3122 3123 3124 3124 3125 3125 3125 3126 3127 3128 3129 3130 3130 3131 3131 3131 3131 3130 3129 3129 3128 3127 3127 3128 3129 3129 3130 3131 3129 3129 3131 3131 3131 3131 3133 3135 3136 3138 3138 3138 3140 3141 3142 3143 3144 3145 3146 3147
3086 3086 3089 3092 3094 3095 3097 3099 3102 3103 3105 3106 3107 3108 3108 3108 3107 3106 3107 3106 3107 3109 3110 3112 3113 3114 3116 3117 3117 3118 3117 3117 3116 3115 3115 3116 3117 3118 3120 3121 3122 3123 3123 3123 3124 3125 3126 3126 3127 3128 3129 3129 3129 3129 3129 3129 3128 3128 3127 3126 3127 3127 3128 3128 3129 3129 3127 3127 3129 3130 3128 3129 3131 3133 3135 3137 3136 3136 3138 3140 3141 3142 3143 3144 3145 3147
3084 3085 3088 3091 3092 3094 3096 3097 3099 3101 3103 3104 3105 3107 3107 3106 3107 3106 3106 3107 3107 3108 3110 3111 3113 3114 3115 3116 3116 3117 3116 3114 3113 3113 3113 3114 3115 3117 3119 3121 3122 3122 3122 3121 3122 3124 3125 3125 3126 3127 3127 3127 3128 3128 3128 3127 3126 3126 3126 3126 3126 3127 3127 3128 3128 3127 3126 3126 3128 3128 3127 3128 3129 3131 3133 3135 3135 3135 3137 3139 3140 3141 3142 3143 3144 3146
3084 3085 3087 3089 3091 3093 3094 3096 3098 3099 3101 3102 3103 3105 3105 3105 3106 3106 3106 3107 3108 3110 3110 3111 3113 3114 3114 3115 3115 3115 3113 3112 3112 3112 3112 3113 3114 3115 3117 3119 3120 3120 3120 3120 3121 3122 3124 3124 3124 3124 3125 3125 3126 3126 3125 3125 3124 3124 3125 3125 3125 3125 3126 3126 3126 3125 3124 3124 3125 3126 3126 3127 3128 3130 3132 3133 3134 3135 3137 3138 3139 3140 3141 3142 3143 3145
3083 3085 3086 3088 3090 3092 3094 3094 3096 3098 3099 3100 3101 3103 3103 3103 3105 3105 3106 3107 3109 3110 3111 3111 3113 3113 3114 3115 3114 3112 3112 3112 3113 3113 3113 3112 3112 3112 3114 3115 3116 3117 3118 3119 3120 3121 3122 3123 3123 3123 3123 3123 3124 3123 3123 3122 3122 3122 3123 3123 3124 3124 3124 3125 3125 3124 3123 3123 3123 3124 3125 3126 3128 3130 3131 3132 3134 3135 3136 3136 3137 3138 3139 3141 3142 3144
3081 3084 3086 3087 3089 3091 3092 3093 3094 3096 3098 3099 3100 3101 3102 3102 3103 3104 3105 3106 3108 3109 3110 3111 3111 3112 3113 3114 3113 3111 3111 3112 3113 3114 3114 3112 3111 3111 3111 3112 3114 3115 3117 3117 3119 3120 3122 3123 3122 3122 3122 3121 3121 3120 3119 3119 3120 3120 3121 3121 3122 3123 3123 3123 3123 3123 3123 3122 3123 3124 3125 3126 3128 3130 3131 3131 3132 3134 3134 3134 3135 3137 3138 3140 3141 3143
3080 3082 3084 3086 3088 3090 3091 3091 3093 3095 3096 3097 3098 3100 3101 3101 3102 3102 3102 3104 3105 3107 3108 3109 3109 3110 3112 3113 3112 3111 3110 3111 3112 3113 3113 3113 3112 3111 3111 3112 3112 3114 3115 3117 3118 3120 3121 3121 3120 3120 3120 3119 3118 3117 3116 3116 3117 3118 3119 3120 3121 3121 3121 3121 3121 3122 3122 3122 3122 3123 3124 3125 3128 3129 3130 3131 3132 3133 3133 3132 3134 3136 3137 3139 3140 3141
3080 3081 3083 3086 3086 3088 3089 3090 3092 3094 3095 3096 3097 3099 3100 3100 3101 3100 3101 3102 3103 3104 3106 3106 3106 3108 3111 3112 3111 3110 3110 3111 3112 3113 3113 3113 3112 3111 3111 3111 3112 3113 3114 3116 3117 3118 3119 3119 3118 3118 3117 3116 3115 3113 3113 3113 3114 3116 3117 3118 3118 3118 3118 3119 3120 3120 3121 3121 3121 3122 3123 3124 3126 3128 3129 3130 3131 3132 3132 3131 3132 3134 3136 3138 3139 3140
3078 3080 3083 3084 3085 3086 3088 3089 3091 3093 3094 3095 3097 3098 3098 3099 3100 3101 3101 3100 3102 3103 3103 3104 3105 3106 3111 3113 3111 3110 3111 3111 3112 3112 3112 3112 3112 3111 3111 3111 3111 3112 3113 3114 3116 3117 3117 3116 3116 3115 3114 3112 3110 3109 3110 3110 3112 3115 3116 3116 3116 3117 3118 3119 3119 3120 3120 3120 3120 3121 3122 3123 3125 3126 3127 3129 3130 3130 3131 3131 3132 3133 3134 3135 3136 3138
3076 3078 3080 3082 3083 3085 3086 3088 3090 3091 3093 3094 3095 3097 3097 3098 3099 3100 3101 3101 3103 3104 3103 3104 3105 3106 3111 3114 3113 3112 3111 3111 3111 3112 3111 3111 3111 3111 3111 3111 3111 3111 3112 3113 3114 3115 3115 3114 3113 3112 3111 3108 3105 3107 3108 3107 3109 3115 3116 3114 3115 3116 3118 3119 3119 3119 3119 3119 3120 3120 3121 3122 3123 3125 3125 3126 3128 3129 3130 3130 3131 3131 3131 3132 3133 3135
3075 3076 3078 3080 3082 3083 3085 3087 3088 3090 3091 3092 3094 3095 3096 3097 3098 3100 3101 3102 3103 3103 3103 3104 3106 3107 3111 3114 3113 3112 3111 3110 3111 3111 3110 3110 3110 3110 3111 3111 3110 3111 3111 3112 3113 3114 3114 3112 3111 3110 3108 3106 3106 3108 3108 3107 3112 3116 3116 3113 3113 3114 3116 3118 3119 3119 3118 3119 3119 3120 3120 3121 3122 3123 3123 3124 3126 3128 3129 3129 3130 3130 3131 3132 3133 3135
3074 3075 3076 3079 3080 3081 3083 3084 3086 3088 3089 3091 3092 3093 3094 3096 3098 3100 3101 3102 3102 3101 3102 3103 3104 3107 3111 3113 3113 3111 3110 3110 3110 3110 3109 3109 3109 3109 3109 3109 3109 3110 3111 3111 3112 3112 3112 3111 3109 3108 3106 3105 3108 3110 3109 3110 3114 3115 3114 3112 3112 3113 3115 3116 3117 3118 3118 3118 3118 3119 3119 3119 3119 3120 3121 3122 3125 3127 3127 3128 3129 3129 3131 3133 3134 3135
3074 3074 3075 3077 3079 3079 3081 3083 3085 3087 3088 3090 3091 3092 3092 3093 3096 3099 3099 3100 3101 3100 3101 3102 3103 3107 3109 3111 3112 3111 3110 3110 3110 3109 3108 3108 3107 3107 3107 3107 3108 3108 3109 3110 3110 3109 3109 3109 3107 3107 3105 3105 3108 3109 3109 3110 3111 3110 3109 3108 3108 3109 3110 3112 3114 3116 3117 3117 3117 3118 3118 3118 3118 3118 3120 3121 3123 3124 3126 3126 3128 3129 3130 3131 3132 3133
3073 3073 3074 3076 3078 3079 3081 3083 3084 3086 3087 3088 3090 3091 3091 3091 3093 3096 3097 3098 3099 3100 3101 3102 3105 3107 3107 3109 3111 3111 3111 3110 3109 3109 3108 3108 3107 3106 3106 3106 3106 3106 3107 3107 3107 3107 3107 3107 3106 3105 3104 3104 3105 3105 3105 3106 3107 3107 3106 3105 3104 3104 3104 3105 3108 3112 3114 3114 3115 3116 3116 3116 3116 3117 3119 3120 3119 3121 3123 3125 3126 3128 3128 3129 3130 3131
3072 3072 3073 3075 3077 3078 3080 3082 3083 3084 3085 3086 3088 3088 3089 3090 3092 3093 3096 3097 3099 3100 3101 3102 3105 3107 3107 3108 3110 3110 3110 3110 3109 3109 3109 3108 3107 3106 3105 3105 3105 3105 3106 3106 3105 3105 3105 3105 3105 3104 3103 3102 3103 3102 3102 3103 3105 3105 3105 3104 3103 3103 3104 3105 3106 3109 3112 3113 3114 3114 3115 3115 3114 3115 3117 3118 3117 3117 3119 3122 3124 3126 3127 3128 3129 3130
3071 3071 3072 3073 3075 3077 3079 3081 3082 3083 3083 3084 3086 3087 3088 3090 3091 3092 3094 3097 3099 3101 3101 3101 3103 3105 3106 3107 3108 3108 3108 3108 3108 3108 3107 3107 3106 3105 3105 3104 3104 3104 3105 3104 3104 3104 3104 3104 3103 3102 3101 3101 3101 3100 3099 3101 3103 3104 3104 3103 3102 3103 3106 3107 3107 3109 3112 3115 3116 3115 3114 3113 3112 3112 3113 3114 3115 3114 3114 3117 3121 3123 3124 3126 3128 3129
3070 3071 3071 3073 3074 3076 3078 3079 3080 3082 3082 3084 3085 3086 3086 3088 3089 3090 3092 3095 3098 3100 3101 3102 3103 3104 3105 3105 3106 3106 3106 3106 3106 3106 3105 3105 3105 3104 3104 3104 3104 3104 3104 3103 3103 3103 3103 3103 3102 3102 3101 3100 3100 3099 3098 3099 3101 3102 3102 3102 3101 3102 3104 3105 3107 3110 3112 3114 3115 3115 3113 3112 3111 3110 3109 3110 3111 3110 3109 3110 3114 3118 3121 3124 3126 3128
3070 3071 3071 3072 3073 3074 3076 3077 3078 3079 3081 3082 3084 3084 3084 3085 3087 3088 3089 3091 3094 3096 3099 3103 3104 3104 3103 3104 3104 3104 3105 3104 3104 3104 3103 3103 3103 3103 3103 3103 3103 3104 3103 3103 3102 3103 3103 3103 3102 3101 3101 3100 3099 3099 3098 3097 3099 3101 3101 3101 3101 3101 3102 3104 3105 3106 3108 3110 3111 3111 3111 3111 3110 3109 3107 3107 3108 3107 3105 3105 3108 3112 3117 3121 3123 3126
3069 3070 3071 3072 3072 3073 3075 3076 3077 3078 3078 3079 3081 3081 3082 3084 3085 3086 3088 3089 3090 3092 3095 3099 3103 3103 3103 3103 3103 3103 3103 3103 3103 3102 3102 3101 3102 3102 3103 3103 3103 3103 3102 3101 3102 3102 3102 3102 3101 3101 3100 3099 3099 3098 3097 3097 3098 3099 3100 3101 3101 3101 3102 3103 3102 3101 3103 3105 3107 3108 3109 3109 3108 3107 3106 3106 3106 3105 3105 3107 3107 3109 3113 3118 3121 3123
3068 3069 3070 3072 3072 3072 3074 3075 3075 3076 3076 3077 3078 3079 3080 3082 3083 3084 3086 3087 3087 3089 3091 3094 3099 3103 3103 3103 3103 3102 3102 3102 3102 3101 3101 3100 3101 3102 3102 3102 3101 3101 3101 3100 3100 3101 3102 3101 3101 3101 3100 3099 3098 3097 3097 3097 3097 3098 3098 3098 3099 3100 3101 3101 3101 3100 3102 3103 3104 3106 3107 3107 3107 3105 3104 3104 3104 3105 3108 3110 3110 3108 3111 3115 3119 3121
3066 3068 3070 3072 3072 3072 3073 3075 3075 3074 3074 3075 3077 3078 3080 3081 3082 3083 3084 3085 3086 3088 3089 3091 3096 3101 3103 3103 3102 3101 3101 3101 3101 3100 3100 3100 3100 3101 3101 3100 3100 3100 3099 3099 3100 3101 3101 3101 3100 3100 3099 3098 3097 3097 3096 3096 3097 3097 3096 3096 3097 3098 3099 3099 3099 3099 3100 3101 3102 3103 3104 3104 3104 3103 3102 3102 3102 3104 3107 3109 3109 3108 3109 3113 3117 3119
3065 3066 3068 3071 3072 3072 3073 3075 3075 3075 3075 3075 3076 3078 3079 3081 3082 3082 3083 3084 3085 3087 3088 3090 3096 3101 3102 3102 3100 3100 3100 3100 3100 3100 3099 3099 3100 3100 3100 3099 3099 3099 3098 3098 3099 3100 3101 3100 3099 3098 3097 3097 3096 3096 3095 3095 3095 3095 3094 3094 3094 3095 3096 3096 3097 3097 3097 3098 3099 3100 3100 3101 3101 3101 3101 3101 3100 3102 3106 3107 3107 3108 3108 3112 3115 3117
3063 3065 3066 3068 3070 3072 3073 3074 3075 3075 3075 3076 3077 3078 3079 3081 3082 3082 3083 3083 3084 3087 3087 3089 3095 3099 3100 3100 3099 3099 3099 3099 3099 3099 3098 3098 3098 3098 3098 3098 3098 3098 3098 3098 3099 3099 3100 3099 3098 3097 3096 3096 3095 3094 3094 3094 3094 3094 3093 3093 3093 3093 3093 3094 3094 3095 3096 3097 3097 3097 3097 3098 3098 3098 3099 3100 3099 3101 3105 3106 3107 3107 3107 3110 3114 3115
3063 3064 3065 3065 3067 3070 3072 3073 3074 3074 3075 3076 3078 3079 3080 3081 3081 3082 3083 3083 3084 3086 3087 3088 3092 3096 3097 3098 3098 3098 3098 3098 3098 3098 3097 3097 3097 3096 3097 3097 3097 3097 3097 3097 3097 3098 3098 3098 3097 3096 3096 3095 3094 3094 3094 3093 3093 3092 3092 3091 3091 3091 3091 3091 3091 3094 3097 3098 3097 3096 3096 3095 3096 3097 3097 3097 3097 3100 3103 3104 3106 3106 3106 3109 3112 3115
3063 3064 3065 3065 3065 3067 3070 3072 3073 3074 3074 3076 3078 3079 3080 3081 3082 3082 3083 3083 3083 3085 3087 3088 3089 3092 3094 3095 3096 3097 3097 3097 3097 3097 3096 3096 3095 3095 3095 3095 3096 3096 3096 3096 3096 3096 3096 3096 3096 3096 3095 3094 3094 3093 3093 3093 3093 3092 3091 3090 3089 3089 3089 3089 3090 3094 3097 3097 3097 3095 3093 3093 3094 3095 3095 3094 3095 3097 3099 3101 3104 3105 3106 3108 3111 3114
3063 3065 3065 3065 3065 3067 3069 3071 3073 3074 3074 3075 3077 3078 3079 3080 3081 3082 3082 3083 3083 3084 3087 3089 3089 3090 3092 3094 3095 3096 3096 3096 3096 3096 3095 3095 3095 3094 3094 3094 3095 3095 3095 3095 3095 3095 3095 3095 3095 3095 3095 3094 3093 3092 3092 3092 3091 3091 3090 3089 3088 3088 3088 3088 3089 3092 3093 3094 3094 3092 3090 3090 3091 3091 3091 3091 3093 3094 3096 3099 3101 3103 3106 3108 3110 3112
3062 3064 3066 3066 3066 3068 3069 3070 3072 3073 3074 3075 3076 3077 3078 3079 3080 3081 3081 3082 3082 3083 3084 3087 3088 3089 3091 3093 3094 3094 3094 3095 3095 3095 3094 3094 3094 3094 3093 3093 3093 3094 3094 3094 3094 3094 3094 3093 3093 3093 3093 3092 3092 3091 3090 3090 3090 3089 3089 3088 3087 3087 3087 3087 3088 3089 3089 3089 3090 3089 3088 3087 3088 3088 3087 3088 3090 3091 3093 3096 3098 3101 3104 3107 3108 3110
3061 3064 3066 3066 3067 3068 3069 3070 3073 3073 3074 3075 3076 3076 3078 3079 3080 3080 3080 3081 3082 3082 3083 3084 3086 3088 3090 3092 3093 3093 3093 3094 3094 3094 3094 3094 3094 3093 3093 3092 3093 3093 3094 3094 3094 3093 3093 3092 3092 3091 3090 3090 3089 3089 3088 3088 3087 3087 3087 3087 3086 3086 3085 3085 3085 3085 3085 3085 3085 3085 3085 3083 3084 3085 3084 3084 3087 3089 3091 3093 3096 3099 3102 3104 3106 3108
3060 3064 3067 3066 3067 3069 3070 3071 3073 3074 3074 3075 3076 3077 3078 3079 3080 3080 3080 3080 3081 3082 3083 3084 3086 3087 3089 3090 3092 3092 3093 3093 3093 3093 3093 3094 3093 3093 3092 3092 3092 3093 3093 3093 3093 3093 3092 3092 3091 3090 3089 3088 3088 3087 3087 3086 3086 3086 3085 3085 3085 3084 3084 3083 3082 3081 3081 3081 3080 3081 3081 3079 3080 3082 3081 3081 3083 3086 3088 3090 3093 3096 3098 3100 3103 3106
3059 3062 3065 3066 3067 3070 3071 3071 3074 3075 3074 3075 3077 3078 3080 3081 3081 3081 3081 3082 3082 3083 3084 3086 3087 3088 3089 3090 3091 3092 3092 3093 3093 3093 3093 3094 3093 3093 3092 3092 3092 3092 3092 3093 3093 3093 3092 3091 3091 3090 3089 3088 3087 3086 3086 3085 3085 3084 3084 3084 3083 3083 3082 3081 3079 3078 3077 3077 3077 3077 3077 3075 3076 3078 3078 3078 3080 3083 3085 3087 3090 3094 3096 3097 3101 3105
3059 3060 3062 3064 3067 3070 3071 3072 3074 3075 3075 3077 3079 3080 3081 3081 3081 3082 3082 3083 3083 3084 3085 3086 3087 3088 3089 3089 3090 3091 3092 3092 3092 3092 3093 3093 3093 3092 3092 3092 3092 3092 3092 3092 3092 3092 3092 3091 3090 3089 3088 3087 3087 3086 3085 3085 3084 3084 3083 3083 3082 3081 3080 3078 3077 3075 3074 3074 3074 3074 3073 3071 3072 3074 3075 3075 3078 3080 3082 3084 3088 3092 3094 3095 3099 3103
3060 3061 3062 3064 3066 3069 3071 3073 3075 3076 3078 3080 3081 3081 3082 3082 3082 3082 3083 3083 3084 3085 3085 3086 3087 3088 3088 3089 3090 3090 3091 3091 3091 3092 3093 3093 3092 3091 3091 3092 3092 3092 3092 3092 3092 3092 3091 3090 3090 3089 3088 3087 3086 3086 3085 3084 3083 3082 3082 3081 3080 3079 3078 3076 3075 3073 3072 3071 3071 3070 3070 3068 3069 3070 3071 3072 3075 3076 3078 3081 3085 3089 3091 3093 3097 3100
3061 3062 3063 3065 3066 3068 3072 3073 3076 3078 3080 3081 3081 3082 3082 3082 3082 3082 3083 3084 3085 3085 3086 3086 3086 3087 3088 3088 3089 3089 3090 3090 3090 3091 3091 3092 3091 3091 3091 3091 3092 3092 3092 3092 3091 3091 3091 3090 3089 3088 3087 3087 3086 3085 3084 3083 3082 3081 3080 3079 3078 3077 3076 3075 3073 3071 3069 3068 3067 3067 3066 3066 3067 3068 3068 3069 3071 3073 3076 3079 3082 3086 3088 3091 3094 3098
3062 3062 3063 3064 3066 3069 3072 3073 3075 3078 3080 3081 3081 3082 3082 3082 3082 3083 3083 3084 3084 3085 3086 3086 3086 3087 3087 3087 3088 3088 3089 3089 3090 3090 3090 3090 3091 3091 3091 3091 3091 3091 3091 3091 3090 3090 3090 3089 3088 3088 3087 3087 3086 3085 3084 3083 3082 3080 3079 3078 3077 3076 3074 3073 3071 3070 3068 3066 3065 3065 3065 3065 3065 3066 3067 3067 3069 3071 3074 3077 3080 3083 3085 3088 3091 3095
3062 3062 3062 3064 3066 3068 3071 3074 3076 3078 3080 3081 3081 3081 3082 3082 3082 3083 3083 3084 3084 3085 3085 3086 3086 3086 3086 3086 3087 3087 3088 3088 3089 3089 3089 3089 3089 3090 3090 3090 3090 3090 3090 3089 3089 3088 3088 3088 3087 3087 3086 3086 3085 3084 3083 3082 3081 3079 3078 3077 3075 3074 3073 3071 3070 3068 3067 3065 3064 3065 3065 3065 3064 3065 3066 3066 3068 3070 3072 3075 3078 3080 3082 3085 3088 3091
3062 3062 3062 3063 3065 3067 3069 3073 3077 3078 3079 3079 3080 3080 3081 3081 3082 3082 3083 3083 3084 3084 3085 3085 3085 3085 3086 3086 3086 3086 3087 3087 3088 3088 3088 3088 3089 3089 3089 3089 3089 3089 3088 3088 3088 3087 3087 3086 3086 3085 3085 3085 3084 3083 3082 3081 3079 3078 3077 3076 3074 3073 3071 3070 3069 3067 3066 3065 3064 3064 3064 3063 3063 3064 3065 3066 3067 3069 3071 3074 3076 3078 3080 3083 3086 3089
3062 3062 3062 3063 3065 3066 3067 3070 3074 3076 3076 3077 3078 3079 3080 3081 3081 3082 3082 3083 3083 3083 3084 3084 3084 3084 3085 3085 3085 3085 3085 3086 3086 3087 3087 3087 3088 3088 3088 3088 3088 3088 3088 3087 3087 3086 3086 3086 3085 3084 3084 3083 3082 3082 3081 3080 3078 3077 3076 3075 3073 3072 3071 3070 3068 3067 3066 3065 3064 3063 3063 3062 3062 3062 3063 3065 3066 3068 3070 3072 3074 3077 3079 3082 3084 3086
3062 3062 3063 3063 3064 3065 3066 3069 3072 3073 3074 3076 3077 3079 3080 3081 3081 3082 3082 3082 3082 3083 3083 3083 3084 3084 3084 3084 3084 3084 3084 3085 3085 3086 3086 3087 3087 3087 3087 3087 3087 3087 3087 3086 3086 3086 3085 3085 3084 3084 3083 3082 3081 3080 3080 3079 3077 3076 3075 3074 3072 3071 3070 3069 3069 3068 3067 3066 3065 3064 3063 3063 3063 3062 3062 3063 3065 3066 3068 3070 3072 3075 3077 3080 3081 3083
3061 3062 3062 3063 3064 3065 3066 3068 3071 3072 3073 3075 3077 3078 3080 3080 3081 3081 3080 3081 3081 3082 3082 3082 3083 3083 3083 3083 3083 3083 3084 3084 3085 3085 3086 3086 3086 3086 3086 3086 3086 3086 3086 3085 3085 3085 3084 3084 3083 3083 3082 3082 3081 3080 3079 3078 3076 3075 3074 3073 3072 3071 3070 3069 3068 3068 3068 3067 3066 3066 3065 3065 3064 3063 3061 3062 3063 3064 3066 3068 3071 3073 3075 3077 3078 3080
3060 3061 3062 3063 3064 3066 3066 3068 3070 3072 3073 3074 3076 3077 3079 3080 3080 3079 3080 3080 3080 3081 3081 3081 3082 3082 3082 3082 3083 3083 3083 3084 3084 3085 3085 3085 3085 3085 3085 3085 3085 3084 3084 3084 3083 3083 3083 3082 3082 3082 3082 3081 3080 3079 3078 3077 3075 3074 3073 3072 3072 3071 3070 3069 3068 3068 3068 3068 3067 3067 3067 3067 3067 3065 3064 3063 3064 3065 3066 3067 3069 3071 3073 3074 3076 3078
3059 3060 3062 3063 3065 3066 3067 3069 3071 3072 3073 3074 3075 3077 3078 3079 3079 3079 3080 3080 3080 3080 3081 3081 3081 3082 3082 3082 3082 3082 3083 3083 3084 3084 3084 3085 3085 3085 3085 3084 3084 3083 3083 3082 3082 3082 3081 3081 3081 3081 3081 3080 3079 3078 3077 3076 3075 3073 3072 3072 3071 3071 3070 3069 3068 3068 3067 3067 3067 3067 3067 3067 3067 3067 3067 3066 3066 3066 3066 3066 3067 3069 3070 3072 3073 3075
3059 3060 3061 3063 3064 3066 3067 3069 3070 3071 3072 3074 3075 3076 3077 3078 3079 3079 3080 3080 3080 3081 3081 3081 3081 3081 3081 3081 3081 3082 3082 3083 3083 3084 3084 3084 3084 3085 3084 3084 3083 3083 3082 3082 3081 3081 3080 3080 3080 3080 3079 3079 3078 3077 3076 3075 3074 3073 3072 3071 3070 3070 3070 3069 3068 3067 3066 3066 3066 3066 3066 3066 3066 3066 3067 3067 3067 3066 3066 3065 3066 3067 3069 3070 3071 3072
3059 3061 3061 3062 3064 3065 3066 3068 3070 3071 3072 3074 3075 3076 3077 3078 3079 3080 3080 3080 3081 3081 3081 3082 3082 3082 3082 3081 3081 3082 3082 3083 3083 3084 3084 3084 3084 3084 3084 3084 3083 3082 3082 3081 3081 3080 3080 3080 3079 3079 3079 3078 3077 3076 3075 3075 3074 3073 3072 3071 3070 3069 3069 3068 3068 3067 3066 3065 3065 3065 3065 3065 3065 3065 3065 3066 3067 3067 3067 3066 3066 3067 3068 3069 3069 3070
3059 3060 3061 3063 3064 3066 3067 3069 3071 3071 3073 3074 3075 3076 3078 3079 3080 3080 3081 3081 3082 3082 3082 3083 3083 3083 3082 3082 3082 3082 3083 3083 3084 3084 3084 3085 3085 3085 3084 3084 3083 3083 3082 3081 3081 3080 3080 3080 3079 3079 3079 3078 3077 3076 3075 3075 3074 3073 3072 3071 3070 3069 3069 3068 3067 3067 3066 3065 3065 3065 3065 3065 3065 3065 3065 3065 3066 3066 3066 3066 3066 3066 3067 3068 3068 3069
3060 3060 3061 3063 3064 3065 3068 3071 3072 3072 3074 3075 3076 3077 3078 3080 3081 3081 3082 3082 3083 3083 3083 3083 3083 3083 3083 3083 3083 3083 3083 3084 3084 3085 3085 3085 3085 3085 3085 3084 3084 3083 3083 3082 3082 3081 3081 3080 3079 3079 3078 3077 3077 3076 3075 3075 3074 3073 3072 3071 3070 3069 3069 3068 3068 3067 3066 3065 3065 3065 3065 3065 3065 3065 3065 3065 3065 3065 3066 3066 3066 3066 3066 3066 3066 3067
3060 3061 3062 3063 3064 3065 3068 3070 3072 3073 3074 3076 3077 3078 3079 3080 3081 3081 3082 3083 3083 3083 3083 3083 3083 3083 3083 3083 3083 3083 3084 3084 3085 3085 3086 3086 3086 3086 3085 3085 3084 3084 3083 3083 3082 3082 3081 3081 3080 3079 3078 3077 3077 3076 3075 3075 3074 3073 3072 3071 3070 3069 3069 3068 3068 3068 3067 3066 3065 3065 3065 3065 3065 3065 3065 3065 3065 3066 3066 3066 3066 3066 3066 3066 3066 3066
3060 3061 3063 3063 3064 3067 3069 3071 3072 3073 3074 3076 3078 3079 3079 3080 3081 3082 3082 3082 3082 3083 3083 3083 3083 3084 3084 3084 3084 3085 3085 3085 3085 3086 3086 3086 3086 3086 3086 3085 3085 3084 3084 3083 3083 3082 3082 3081 3080 3080 3078 3077 3077 3076 3075 3075 3074 3073 3072 3071 3070 3069 3069 3069 3068 3068 3067 3067 3066 3066 3066 3066 3066 3066 3066 3066 3065 3066 3066 3067 3067 3067 3067 3067 3067 3066
3062 3063 3064 3065 3066 3068 3070 3072 3074 3074 3074 3076 3078 3079 3080 3081 3081 3082 3082 3082 3082 3083 3083 3084 3084 3084 3085 3085 3085 3086 3086 3086 3086 3086 3086 3086 3086 3086 3085 3085 3085 3084 3084 3083 3083 3082 3081 3081 3080 3079 3079 3078 3077 3076 3075 3074 3074 3073 3072 3071 3070 3069 3069 3069 3068 3068 3067 3067 3066 3066 3066 3066 3066 3066 3066 3065 3065 3065 3066 3066 3066 3066 3066 3067 3067 3066
3066 3066 3067 3067 3067 3069 3071 3073 3075 3076 3075 3076 3078 3080 3080 3082 3082 3083 3083 3084 3084 3084 3085 3085 3085 3085 3085 3086 3086 3086 3087 3087 3087 3087 3087 3087 3086 3086 3085 3085 3085 3084 3084 3083 3082 3082 3081 3080 3080 3079 3078 3077 3076 3075 3075 3074 3073 3073 3072 3071 3071 3070 3069 3068 3068 3068 3067 3067 3067 3066 3066 3066 3066 3066 3066 3066 3065 3065 3065 3065 3065 3066 3066 3066 3066 3066